Showing default

DMSP 5D-2 F8 (USA 26), 18123

Orbit data source: Space-Track

DMSP 5D-2 F8 (USA 26), 18123 is a payload satellite owned by USAF SD (US) in SSO that was launched on Sat, 20 Jun 1987 UTC via an ATLAS E launch vehicle from the Air Force Western Test Range (AFWTR). Payload-class satellites include a variety of spacecraft equipped with specific instruments for various scientific and technological missions. These include communications satellites like Starlink; space stations such as the ISS; scientific satellites like the Hubble; Earth observation satellites from companies like Planet Labs, Umbra, and HawkEye 360; GPS; miniature CubeSats for education and research; and military/defense satellites.

Loading next visibility...
Identifier
18123, 1987-053A
Orbit
SSO
Country
Flag of USUS
Related business
Manufacturer
GE/East Windsor
Mission
Non-operational Defense Weather
Bus & Motor
BLOCK 5D, STAR 37S
Mass
1,487 kg wet, 773 kg dry
Launch date (UTC)
Icon of a cake. It is the launch day of the satellite!1987-06-20 (39 years ago)
Launch vehicle
ATLAS E
Launch site
Air Force Western Test Range (AFWTR)
Object type
Payload
Rocket body
Debris
Shape & HBR
Cyl + 1 Pan, 3.5 m
Radar Cross Section
9.012 m², Large (>1 m²)

Expand to show TLE details & history
Last TLE update: 11 hours ago

TLE from 11 hours ago
0 DMSP 5D-2 F8 (USA 26)
1 18123U 87053A   26171.44233487  .00000017  00000-0  28712-4 0  9992
2 18123  98.7333 357.4519 0013049 147.4679 212.7304 14.19554461 17309
Epoch: 2026-06-20T10:36Z
TLE epoch observation values (Epoch: 2026-06-20T10:36:57.732Z)
Latitude
-0.00002°
Longitude
-70.44555°
Altitude
837.687 km
Speed
7.43 km/s
True Right ascension
23h 49m 48s
True Declination
0° 00' 00"
Sunlit
Object was in daylight at epoch
Visualization orbit readout
Latitude
Unknown
Longitude
Unknown
Altitude
Unknown
Speed
Unknown
Apparent Right ascension
Unknown
Apparent Declination
Unknown
Sunlit
N/A
Visualization observer readout
Local Sidereal Time
08:33:32
Azimuth
Unknown
Elevation
Unknown
Doppler factor
Unknown
Orbital elements
Apogee altitude
833.418 km
Perigee altitude
814.622 km
Semi-major axis
7,202.157 km
Eccentricity
0.0013
Inclination
98.7333°
RAAN
357.4519°
Arg. of periapsis
147.4679°
True anomaly
212.64966°
Mean anomaly
212.7304°
Eccentric anomaly
212.69002°
Mean motion
3.55099 °/min
Orbital period
101.38 mins
BSTAR
0.000028712
Loading maneuver chart data...
Computing Atmospheric mass density...
Loading historical data...
Loading historical data...
Loading historical data...
Loading historical data...
Loading historical data...
Loading historical data...
Loading historical data...

Documentation

Showing up to 5 results
|